Location: �chemir�
(47.5500°N, 0.1667°W)
Time: 14:44:58
(UTC+02:00)

ISS - Pass Details

Date: 22 May 2021
Orbit: 419 x 422 km, 51.6° (Epoch: 25 June)

Event Time Altitude Azimuth Distance (km) Brightness Sun altitude
Rises 22:47:28 0° 277° (W) 2,370 1.0 -9.7°
Reaches altitude 10° 22:49:39 10° 285° (WNW) 1,506 0.1 -9.9°
Maximum altitude 22:52:51 40° 356° (N) 642 -2.4 -10.3°
Drops below altitude 10° 22:56:05 10° 68° (ENE) 1,508 -1.1 -10.7°
Enters shadow 22:58:17 - 76° (ENE) 2,378 -0.2 -10.9°
